KF5RM Weather Reports


time (UTC)temp
C
wind
direction
speed
KPH
gust
KPH
rain 1hr
cm
rain 24hr
cm
rain mn
cm
humidity
%
barometer
mb
20260507125003 21 74 1.6 25.7 0.00 0.00 0.00 80 1015.2
20260507124503 21 72 0.0 25.7 0.00 0.00 0.00 81 1015.4
20260507123004 21 0 0.0 0.0 0.00 0.00 0.00 78 1015.3
20260507122503 21 0 0.0 0.0 0.00 0.00 0.00 78 1015.3
20260507122003 22 0 0.0 0.0 0.00 0.00 0.00 79 1015.3
20260507121503 22 0 0.0 0.0 0.00 0.00 0.00 79 1015.2
20260507121003 22 0 0.0 0.0 0.00 0.00 0.00 79 1015.2
20260507115503 22 60 0.0 11.3 0.00 0.00 0.00 78 1015.0
20260507115003 22 0 0.0 0.0 0.00 0.00 0.00 78 1014.8
20260507114504 22 0 1.6 0.0 0.00 0.00 0.00 79 1014.6
20260507113503 22 75 3.2 22.5 0.00 0.00 0.00 78 1014.5
20260507113004 22 74 0.0 22.5 0.00 0.00 0.00 78 1014.4
20260507112503 22 0 0.0 0.0 0.00 0.00 0.00 78 1014.4
20260507112004 22 0 0.0 0.0 0.00 0.00 0.00 78 1014.4
20260507111504 22 53 0.0 16.1 0.00 0.00 0.00 79 1014.2
20260507111004 22 53 0.0 16.1 0.00 0.00 0.00 79 1014.3
20260507110503 22 0 0.0 0.0 0.00 0.00 0.00 79 1014.3
20260507110004 22 66 1.6 11.3 0.00 0.00 0.00 79 1014.3
20260507105503 22 63 0.0 14.5 0.00 0.00 0.00 79 1014.3
20260507105004 22 60 0.0 14.5 0.00 0.00 0.00 79 1014.3
20260507104504 22 80 0.0 6.4 0.00 0.00 0.00 79 1014.4
20260507103503 22 67 1.6 9.7 0.00 0.00 0.00 78 1014.5
20260507103004 22 68 1.6 11.3 0.00 0.00 0.00 78 1014.4
20260507102503 22 63 1.6 11.3 0.00 0.00 0.00 78 1014.4
20260507102004 22 63 0.0 11.3 0.00 0.00 0.00 77 1014.4
20260507101503 22 86 1.6 4.8 0.00 0.00 0.00 77 1014.2
20260507101003 22 77 3.2 17.7 0.00 0.00 0.00 77 1014.0
20260507100005 22 68 0.0 14.5 0.00 0.00 0.00 76 1014.1
20260507094504 22 0 0.0 0.0 0.00 0.00 0.00 76 1014.1
20260507094005 22 68 1.6 9.7 0.00 0.00 0.00 76 1014.0
20260507093004 22 70 1.6 14.5 0.00 0.00 0.00 75 1014.1
20260507092503 22 66 1.6 16.1 0.00 0.00 0.00 75 1014.0
20260507092003 22 66 0.0 16.1 0.00 0.00 0.00 74 1014.0
20260507091503 22 62 0.0 9.7 0.00 0.00 0.00 74 1013.9
20260507091003 22 62 0.0 9.7 0.00 0.00 0.00 74 1014.0
20260507090503 22 0 0.0 0.0 0.00 0.00 0.00 74 1013.8
20260507085503 23 0 0.0 0.0 0.00 0.00 0.00 73 1013.6
20260507085004 23 0 0.0 0.0 0.00 0.00 0.00 73 1013.8
20260507084504 23 0 0.0 0.0 0.00 0.00 0.00 74 1013.7
20260507084004 23 68 1.6 11.3 0.00 0.00 0.00 74 1013.8
20260507083503 23 71 0.0 14.5 0.00 0.00 0.00 75 1013.8
20260507083005 23 72 0.0 14.5 0.00 0.00 0.00 75 1013.9
20260507082503 23 0 0.0 0.0 0.00 0.00 0.00 75 1013.7
20260507082004 23 54 0.0 14.5 0.00 0.00 0.00 75 1013.9
20260507081503 23 54 0.0 14.5 0.00 0.00 0.00 75 1013.9
20260507081003 23 0 0.0 0.0 0.00 0.00 0.00 75 1014.0
20260507080503 23 74 0.0 4.8 0.00 0.00 0.00 75 1014.0
20260507075503 23 72 0.0 4.8 0.00 0.00 0.00 75 1014.1
20260507075003 24 79 0.0 8.0 0.00 0.00 0.00 75 1014.0
20260507074004 24 0 1.6 0.0 0.00 0.00 0.00 75 1014.0
20260507073503 24 64 1.6 17.7 0.00 0.00 0.00 74 1013.8
20260507073005 25 64 1.6 17.7 0.00 0.00 0.00 74 1013.9
20260507072502 25 64 1.6 9.7 0.00 0.00 0.00 75 1013.9
20260507072002 25 65 1.6 9.7 0.00 0.00 0.00 75 1013.8
20260507071503 25 72 0.0 12.9 0.00 0.00 0.00 75 1013.8
20260507071002 26 75 0.0 12.9 0.00 0.00 0.00 76 1013.8
20260507070007 26 66 0.0 11.3 0.00 0.00 0.00 76 1013.8
20260507065502 27 65 0.0 11.3 0.00 0.00 0.00 80 1013.7
20260507065002 27 0 0.0 0.0 0.00 0.00 0.00 85 1013.7
20260507064502 27 0 0.0 0.0 0.00 0.00 0.00 84 1013.6
20260507064002 27 0 0.0 0.0 0.00 0.00 0.00 84 1013.7
20260507063502 27 0 0.0 0.0 0.00 0.00 0.00 84 1013.8
20260507063003 27 0 0.0 0.0 0.00 0.00 0.00 84 1013.8
20260507062502 27 0 0.0 0.0 0.00 0.00 0.00 84 1013.8
20260507062002 27 0 1.6 0.0 0.00 0.00 0.00 84 1013.7
20260507061503 27 91 1.6 11.3 0.00 0.00 0.00 84 1013.7
20260507061003 27 93 0.0 11.3 0.00 0.00 0.00 83 1013.7
20260507060502 27 97 0.0 8.0 0.00 0.00 0.00 83 1013.6
20260507055502 27 0 0.0 0.0 0.00 0.00 0.00 83 1013.6
20260507055002 27 0 0.0 0.0 0.00 0.00 0.00 83 1013.7
20260507054502 27 0 0.0 0.0 0.00 0.00 0.00 83 1013.7
20260507054002 28 0 0.0 0.0 0.00 0.00 0.00 83 1013.6
20260507053502 28 0 0.0 0.0 0.00 0.00 0.00 82 1013.5
20260507053003 28 0 0.0 0.0 0.00 0.00 0.00 82 1013.6
20260507052502 28 0 0.0 0.0 0.00 0.00 0.00 82 1013.5
20260507051503 28 0 0.0 0.0 0.00 0.00 0.00 81 1013.4
20260507051002 28 0 0.0 0.0 0.00 0.00 0.00 81 1013.4
20260507050502 28 0 0.0 0.0 0.00 0.00 0.00 80 1013.3
20260507045502 28 0 0.0 0.0 0.00 0.00 0.00 79 1013.4
20260507045003 28 0 0.0 0.0 0.00 0.00 0.00 79 1013.3
20260507044502 28 0 0.0 0.0 0.00 0.00 0.00 79 1013.3
20260507044002 28 0 0.0 0.0 0.00 0.00 0.00 78 1013.3
20260507043002 29 92 0.0 1.6 0.00 0.00 0.00 77 1013.3
20260507042502 29 92 0.0 1.6 0.00 0.00 0.00 76 1013.2
20260507042002 29 0 0.0 0.0 0.00 0.00 0.00 75 1013.1
20260507041502 30 0 0.0 0.0 0.00 0.00 0.00 75 1013.1
20260507040503 30 0 0.0 0.0 0.00 0.00 0.00 74 1013.0
20260507040003 30 0 0.0 0.0 0.00 0.00 0.00 73 1012.8
20260507035502 30 0 0.0 0.0 0.00 0.00 0.00 73 1012.8
20260507035002 30 0 0.0 0.0 0.00 0.00 0.00 73 1012.6
20260507034503 30 0 1.6 0.0 0.00 0.00 0.00 72 1012.4
20260507034002 30 105 1.6 12.9 0.00 0.00 0.00 72 1012.4
20260507033502 30 104 3.2 12.9 0.00 0.00 0.00 71 1012.3
20260507033002 30 109 3.2 17.7 0.00 0.00 0.00 70 1012.2
20260507032002 30 107 1.6 16.1 0.00 0.00 0.00 70 1012.1
20260507031502 31 108 0.0 16.1 0.00 0.00 0.00 69 1012.1
20260507030502 31 0 0.0 0.0 0.00 0.00 0.00 67 1011.9
20260507030003 31 0 0.0 0.0 0.00 0.00 0.00 66 1011.7
20260507025502 31 0 0.0 0.0 0.00 0.00 0.00 64 1011.6
20260507025003 31 0 0.0 0.0 0.00 0.00 0.00 62 1011.4
20260507024503 31 0 0.0 0.0 0.00 0.00 0.00 61 1011.4
20260507024003 31 0 0.0 0.0 0.00 0.00 0.00 60 1011.3
20260507023503 31 0 0.0 0.0 0.00 0.00 0.00 60 1011.1
20260507023004 32 0 0.0 0.0 0.00 0.00 0.00 60 1011.1
20260507022502 32 0 0.0 0.0 0.00 0.00 0.00 60 1010.9
20260507022003 32 0 0.0 0.0 0.00 0.00 0.00 59 1010.9
20260507021503 32 0 0.0 0.0 0.00 0.00 0.00 59 1010.6
20260507020503 32 0 0.0 0.0 0.00 0.00 0.00 59 1010.4
20260507015002 32 0 0.0 0.0 0.00 0.00 0.00 59 1010.3
20260507013502 32 0 0.0 0.0 0.00 0.00 0.00 58 1010.1
20260507013003 32 0 0.0 0.0 0.00 0.00 0.00 58 1009.9
20260507012002 32 0 0.0 0.0 0.00 0.00 0.00 57 1009.7
20260507011502 32 0 1.6 0.0 0.00 0.00 0.00 56 1009.6
20260507010502 33 69 0.0 12.9 0.00 0.00 0.00 56 1009.5
20260507010004 33 0 0.0 0.0 0.00 0.00 0.00 56 1009.4
20260507005503 33 0 0.0 0.0 0.00 0.00 0.00 56 1009.3
20260507005002 33 0 0.0 0.0 0.00 0.00 0.00 55 1009.2
20260507004503 33 0 0.0 0.0 0.00 0.00 0.00 55 1009.1
20260507003503 33 52 1.6 1.6 0.00 0.00 0.00 54 1008.9
20260507003003 33 69 1.6 16.1 0.00 0.00 0.00 55 1009.1
20260507002502 33 69 1.6 16.1 0.00 0.00 0.00 55 1008.9
20260507002003 33 84 3.2 12.9 0.00 0.00 0.00 54 1008.7
20260507001503 33 81 4.8 16.1 0.00 0.00 0.00 53 1008.7
20260507001003 33 82 3.2 16.1 0.00 0.00 0.00 54 1008.6
20260507000502 33 88 1.6 20.9 0.00 0.00 0.00 54 1008.6
20260507000004 33 91 0.0 20.9 0.00 0.00 0.00 54 1008.5
20260506235502 34 0 0.0 0.0 0.00 0.00 0.00 53 1008.4
20260506235003 34 0 0.0 0.0 0.00 0.00 0.00 53 1008.3
20260506234502 34 43 0.0 8.0 0.00 0.00 0.00 52 1008.2
20260506234003 34 43 0.0 8.0 0.00 0.00 0.00 52 1008.2
20260506233502 34 65 1.6 14.5 0.00 0.00 0.00 52 1008.1
20260506233003 34 67 4.8 16.1 0.00 0.00 0.00 52 1008.1
20260506232503 34 65 6.4 19.3 0.00 0.00 0.00 51 1007.9
20260506232003 34 64 4.8 19.3 0.00 0.00 0.00 52 1007.8
20260506231002 34 63 0.0 11.3 0.00 0.00 0.00 52 1007.8
20260506230503 35 49 1.6 3.2 0.00 0.00 0.00 51 1007.9
20260506230003 34 64 1.6 19.3 0.00 0.00 0.00 52 1007.8
20260506224503 34 84 4.8 22.5 0.00 0.00 0.00 53 1007.9
20260506224003 34 84 1.6 22.5 0.00 0.00 0.00 52 1007.8
20260506223503 34 80 0.0 14.5 0.00 0.00 0.00 53 1007.9
20260506223003 34 0 1.6 0.0 0.00 0.00 0.00 53 1007.9
20260506222503 34 65 1.6 16.1 0.00 0.00 0.00 54 1007.9
20260506222003 34 67 0.0 17.7 0.00 0.00 0.00 54 1008.1
20260506221503 33 70 0.0 17.7 0.00 0.00 0.00 54 1008.0
20260506220503 33 71 1.6 16.1 0.00 0.00 0.00 55 1008.1
20260506220003 34 72 0.0 16.1 0.00 0.00 0.00 55 1008.3
20260506215502 33 98 0.0 3.2 0.00 0.00 0.00 56 1008.4
20260506215002 33 0 0.0 0.0 0.00 0.00 0.00 56 1008.4
20260506214503 33 0 1.6 0.0 0.00 0.00 0.00 57 1008.4
20260506213503 33 49 0.0 14.5 0.00 0.00 0.00 59 1008.4
20260506213003 33 51 0.0 14.5 0.00 0.00 0.00 59 1008.5
20260506212003 33 0 0.0 0.0 0.00 0.00 0.00 60 1008.8
20260506211503 32 62 0.0 1.6 0.00 0.00 0.00 61 1008.7
20260506211003 32 62 0.0 1.6 0.00 0.00 0.00 62 1008.9
20260506210503 32 0 0.0 0.0 0.00 0.00 0.00 61 1008.8
20260506210003 32 0 0.0 0.0 0.00 0.00 0.00 61 1008.9
20260506205003 32 52 3.2 9.7 0.00 0.00 0.00 62 1009.1
20260506204502 32 58 3.2 16.1 0.00 0.00 0.00 63 1009.1
20260506204003 32 66 1.6 16.1 0.00 0.00 0.00 63 1009.1
20260506203503 32 70 0.0 12.9 0.00 0.00 0.00 63 1009.3
20260506203003 32 0 0.0 0.0 0.00 0.00 0.00 62 1009.3
20260506202503 32 0 1.6 0.0 0.00 0.00 0.00 60 1009.4
20260506202002 33 20 1.6 9.7 0.00 0.00 0.00 61 1009.4
20260506201503 32 20 1.6 9.7 0.00 0.00 0.00 62 1009.5
20260506201002 32 18 1.6 11.3 0.00 0.00 0.00 63 1009.6
20260506200003 32 39 0.0 14.5 0.00 0.00 0.00 63 1009.6
20260506195503 32 0 0.0 0.0 0.00 0.00 0.00 64 1009.6
20260506195003 32 0 0.0 0.0 0.00 0.00 0.00 63 1009.8
20260506194503 32 0 0.0 0.0 0.00 0.00 0.00 64 1009.9
20260506194003 32 0 0.0 0.0 0.00 0.00 0.00 64 1009.9
20260506193503 31 0 0.0 0.0 0.00 0.00 0.00 64 1009.9
20260506193003 31 0 0.0 0.0 0.00 0.00 0.00 64 1010.0
20260506192003 32 0 0.0 0.0 0.00 0.00 0.00 63 1010.2
20260506190502 31 0 0.0 0.0 0.00 0.00 0.00 64 1010.3
20260506185502 31 0 0.0 0.0 0.00 0.00 0.00 66 1010.5
20260506185002 31 0 0.0 0.0 0.00 0.00 0.00 66 1010.6
20260506184503 31 0 0.0 0.0 0.00 0.00 0.00 68 1010.6
20260506184003 31 311 0.0 6.4 0.00 0.00 0.00 68 1010.6
20260506183503 31 311 0.0 6.4 0.00 0.00 0.00 68 1010.6
20260506183003 31 0 0.0 0.0 0.00 0.00 0.00 68 1010.8
20260506182503 31 0 0.0 0.0 0.00 0.00 0.00 67 1010.7
20260506182003 31 0 0.0 0.0 0.00 0.00 0.00 68 1010.7
20260506181502 31 0 0.0 0.0 0.00 0.00 0.00 68 1010.7
20260506181003 31 0 0.0 0.0 0.00 0.00 0.00 68 1010.7
20260506180503 31 0 0.0 0.0 0.00 0.00 0.00 68 1010.8
20260506180004 30 0 0.0 0.0 0.00 0.00 0.00 69 1010.9
20260506175003 30 0 0.0 0.0 0.00 0.00 0.00 70 1010.9
20260506174503 30 0 0.0 0.0 0.00 0.00 0.00 70 1010.9
20260506174003 30 0 0.0 0.0 0.00 0.00 0.00 71 1010.8
20260506173003 30 0 0.0 0.0 0.00 0.00 0.00 71 1011.1
20260506172502 30 0 0.0 0.0 0.00 0.00 0.00 71 1011.0
20260506172003 30 0 0.0 0.0 0.00 0.00 0.00 71 1011.1
20260506171502 30 0 0.0 0.0 0.00 0.00 0.00 71 1011.1
20260506171003 30 0 0.0 0.0 0.00 0.00 0.00 72 1011.0
20260506170502 30 0 0.0 0.0 0.00 0.00 0.00 72 1011.0
20260506170004 30 0 0.0 0.0 0.00 0.00 0.00 72 1011.1
20260506165003 30 0 0.0 0.0 0.00 0.00 0.00 72 1010.9
20260506163503 29 0 0.0 0.0 0.00 0.00 0.00 73 1010.9
20260506163004 29 0 0.0 0.0 0.00 0.00 0.00 73 1010.9
20260506162003 28 0 0.0 0.0 0.00 0.00 0.00 74 1010.8
20260506161503 28 0 0.0 0.0 0.00 0.00 0.00 74 1010.7
20260506161003 28 0 0.0 0.0 0.00 0.00 0.00 74 1010.6
20260506160503 28 0 0.0 0.0 0.00 0.00 0.00 74 1010.6
20260506160003 29 0 0.0 0.0 0.00 0.00 0.00 74 1010.6
20260506155503 28 0 0.0 0.0 0.00 0.00 0.00 75 1010.5
20260506155003 28 0 0.0 0.0 0.00 0.00 0.00 75 1010.6
20260506154503 28 0 0.0 0.0 0.00 0.00 0.00 75 1010.5
20260506153003 28 0 0.0 0.0 0.00 0.00 0.00 75 1010.3
20260506152503 28 0 0.0 0.0 0.00 0.00 0.00 76 1010.3
20260506152003 28 0 0.0 0.0 0.00 0.00 0.00 75 1010.2
20260506151503 28 0 0.0 0.0 0.00 0.00 0.00 76 1010.2
20260506151003 28 0 0.0 0.0 0.00 0.00 0.00 76 1010.1
20260506150504 28 0 0.0 0.0 0.00 0.00 0.00 77 1010.0
20260506150003 28 0 0.0 0.0 0.00 0.00 0.00 78 1010.0
20260506144503 27 0 0.0 0.0 0.00 0.00 0.00 79 1010.1
20260506144004 27 129 0.0 9.7 0.00 0.00 0.00 81 1010.0
20260506143503 27 129 0.0 9.7 0.00 0.00 0.00 80 1009.9
20260506143003 27 0 0.0 0.0 0.00 0.00 0.00 81 1010.0
20260506142503 27 0 0.0 0.0 0.00 0.00 0.00 82 1009.9
20260506142004 27 0 0.0 0.0 0.00 0.00 0.00 82 1009.9
20260506141504 27 0 0.0 0.0 0.00 0.00 0.00 82 1009.9
20260506141003 26 0 0.0 0.0 0.00 0.00 0.00 82 1009.9
20260506140004 26 0 0.0 0.0 0.00 0.00 0.00 82 1009.7
20260506135504 26 0 0.0 0.0 0.00 0.00 0.00 82 1009.6
20260506135003 26 0 0.0 0.0 0.00 0.00 0.00 83 1009.6
20260506134503 26 0 0.0 0.0 0.00 0.00 0.00 82 1009.6
20260506134003 26 0 0.0 0.0 0.00 0.00 0.00 82 1009.6
20260506133503 26 0 0.0 0.0 0.00 0.00 0.00 82 1009.6
20260506133003 26 0 0.0 0.0 0.00 0.00 0.00 82 1009.5
20260506132503 26 0 0.0 0.0 0.00 0.00 0.00 82 1009.5
20260506131503 26 0 0.0 0.0 0.00 0.00 0.00 82 1009.7
20260506131003 26 0 0.0 0.0 0.00 0.00 0.00 82 1009.7
20260506125503 26 0 0.0 0.0 0.00 0.00 0.00 82 1009.3